SQ5LTL-2 Weather Reports


Display with metric or nautical units.
time (UTC)temp
F
wind
direction
speed
MPH
gust
MPH
rain 1hr
in
rain 24hr
in
rain mn
in
humidity
%
barometer
mb
20260905215030 55 170 3.0 6.0 0.00 0.15 0.15 89 1016.7
20260905214528 55 164 2.0 4.0 0.00 0.15 0.15 90 1016.6
20260905214027 55 168 3.0 5.0 0.00 0.15 0.15 90 1016.8
20260905213525 55 177 3.0 5.0 0.00 0.15 0.15 90 1016.8
20260905213023 55 181 3.0 7.0 0.00 0.15 0.15 90 1016.7
20260905212523 56 180 4.0 9.0 0.00 0.15 0.15 90 1016.8
20260905212021 56 171 3.0 9.0 0.00 0.17 0.15 89 1016.6
20260905211519 56 183 3.0 10.0 0.00 0.20 0.15 89 1016.6
20260905211018 56 133 2.0 6.0 0.00 0.20 0.15 89 1016.7
20260905210516 56 158 3.0 8.0 0.00 0.20 0.15 90 1016.6
20260905210036 56 184 3.0 8.0 0.00 0.21 0.15 90 1016.6
20260905205533 56 177 4.0 10.0 0.00 0.21 0.15 91 1016.5
20260905205032 56 186 3.0 6.0 0.00 0.22 0.15 91 1016.3
20260905204530 56 187 4.0 8.0 0.00 0.22 0.15 92 1016.5
20260905204029 55 180 3.0 6.0 0.00 0.23 0.15 92 1016.4
20260905203528 55 182 3.0 5.0 0.00 0.23 0.15 93 1016.3
20260905203026 55 182 2.0 4.0 0.00 0.23 0.15 94 1016.2
20260905202525 55 191 4.0 7.0 0.00 0.23 0.15 94 1016.1
20260905202023 55 195 3.0 5.0 0.00 0.23 0.15 95 1016.2
20260905201523 55 189 3.0 5.0 0.00 0.23 0.15 95 1016.3
20260905201020 55 183 4.0 6.0 0.00 0.23 0.15 95 1016.3
20260905200519 55 183 3.0 6.0 0.00 0.23 0.15 95 1016.3
20260905200017 55 175 2.0 4.0 0.00 0.23 0.15 95 1016.4
20260905195516 55 176 2.0 4.0 0.00 0.23 0.15 95 1016.3
20260905195035 55 184 3.0 6.0 0.00 0.23 0.15 94 1016.3
20260905194533 55 187 3.0 5.0 0.00 0.23 0.15 95 1016.3
20260905194031 55 189 3.0 6.0 0.00 0.23 0.15 94 1016.4
20260905193530 55 181 3.0 5.0 0.00 0.23 0.15 95 1016.4
20260905193028 55 181 3.0 5.0 0.00 0.23 0.15 95 1016.4
20260905192528 55 171 3.0 6.0 0.02 0.23 0.15 95 1016.5
20260905192025 55 191 3.0 5.0 0.06 0.23 0.15 95 1016.4
20260905191523 55 187 2.0 4.0 0.09 0.23 0.15 95 1016.4
20260905191022 55 182 3.0 5.0 0.09 0.23 0.15 94 1016.3
20260905190521 55 185 3.0 5.0 0.09 0.23 0.15 94 1016.5
20260905190020 55 172 3.0 5.0 0.09 0.23 0.15 94 1016.5
20260905185518 55 171 2.0 6.0 0.09 0.23 0.15 93 1016.6
20260905185016 55 182 4.0 6.0 0.09 0.23 0.15 93 1016.7
20260905184535 55 172 3.0 6.0 0.09 0.23 0.15 93 1016.6
20260905184033 55 172 3.0 6.0 0.09 0.23 0.15 92 1016.8
20260905183537 55 179 2.0 6.0 0.10 0.23 0.15 92 1016.9
20260905183031 56 191 3.0 6.0 0.10 0.23 0.15 90 1017.1
20260905182534 56 128 3.0 12.0 0.08 0.21 0.13 89 1017.2
20260905182028 56 187 3.0 9.0 0.04 0.17 0.09 89 1017.1
20260905181526 56 181 2.0 6.0 0.01 0.14 0.06 90 1016.8
20260905181024 56 181 3.0 6.0 0.01 0.14 0.06 91 1016.6
20260905180522 56 185 4.0 5.0 0.01 0.14 0.06 90 1016.7
20260905180023 56 164 2.0 4.0 0.01 0.14 0.06 89 1016.7
20260905175520 56 171 3.0 5.0 0.01 0.14 0.06 88 1016.9
20260905175018 56 166 2.0 3.0 0.01 0.14 0.06 88 1016.6
20260905174517 55 74 2.0 4.0 0.00 0.13 0.06 89 1016.6
20260905174035 55 58 1.0 4.0 0.01 0.13 0.06 91 1016.4
20260905173534 55 173 0.0 1.0 0.00 0.13 0.05 90 1016.0
20260905173032 55 139 0.0 1.0 0.00 0.13 0.05 89 1016.0
20260905172531 55 204 0.0 2.0 0.00 0.13 0.05 88 1016.0
20260905172029 56 149 0.0 1.0 0.00 0.13 0.05 87 1016.1
20260905171528 57 155 0.0 1.0 0.00 0.13 0.05 84 1016.0
20260905171026 58 144 0.0 2.0 0.00 0.13 0.05 82 1016.1
20260905170526 58 132 1.0 3.0 0.00 0.13 0.05 80 1016.1
20260905170024 59 137 1.0 3.0 0.00 0.13 0.05 79 1016.1
20260905165522 59 65 2.0 4.0 0.00 0.13 0.05 78 1016.1
20260905165020 59 28 3.0 6.0 0.00 0.13 0.05 77 1016.2
20260905164520 60 8 4.0 11.0 0.00 0.13 0.05 73 1016.4
20260905164018 61 357 3.0 9.0 0.00 0.13 0.05 70 1016.4
20260905163516 61 349 3.0 9.0 0.00 0.13 0.05 69 1016.3
20260905163034 62 19 4.0 7.0 0.00 0.13 0.05 66 1016.4
20260905162533 63 47 4.0 12.0 0.00 0.13 0.05 63 1016.4
20260905162032 66 349 4.0 14.0 0.00 0.13 0.05 55 1016.0
20260905161530 67 348 4.0 10.0 0.00 0.13 0.05 52 1015.5
20260905161028 67 346 3.0 8.0 0.00 0.13 0.05 52 1015.3
20260905160527 67 218 4.0 9.0 0.00 0.13 0.05 51 1015.1
20260905160025 67 307 3.0 7.0 0.00 0.13 0.05 52 1015.2
20260905155524 67 169 3.0 5.0 0.00 0.13 0.05 52 1015.1
20260905155022 67 153 2.0 4.0 0.00 0.13 0.05 52 1015.0
20260905154521 67 194 3.0 10.0 0.00 0.13 0.05 52 1015.1
20260905154019 67 316 3.0 8.0 0.00 0.13 0.05 51 1015.0
20260905153518 68 143 2.0 8.0 0.00 0.13 0.05 51 1014.9
20260905153017 68 81 2.0 5.0 0.00 0.13 0.05 51 1015.0
20260905152535 67 180 2.0 5.0 0.00 0.13 0.05 52 1015.0
20260905152033 68 227 3.0 10.0 0.00 0.13 0.05 51 1014.9
20260905151532 68 207 3.0 11.0 0.00 0.13 0.05 51 1014.9
20260905151030 68 150 2.0 8.0 0.00 0.13 0.05 52 1015.0
20260905150529 68 212 3.0 7.0 0.00 0.13 0.05 52 1014.8
20260905150027 68 348 4.0 8.0 0.00 0.13 0.05 52 1015.0
20260905145526 68 346 3.0 8.0 0.00 0.13 0.05 52 1014.9
20260905145024 68 218 2.0 6.0 0.00 0.13 0.05 52 1014.8
20260905144523 68 184 3.0 8.0 0.00 0.13 0.05 52 1015.0
20260905144022 68 163 3.0 7.0 0.00 0.13 0.05 52 1015.0
20260905143520 68 55 2.0 6.0 0.00 0.13 0.05 52 1015.0
20260905143019 68 119 2.0 5.0 0.00 0.13 0.05 52 1014.9
20260905142518 68 7 4.0 11.0 0.00 0.13 0.05 51 1014.9
20260905142015 68 310 3.0 8.0 0.00 0.13 0.05 51 1014.9
20260905141534 68 210 2.0 7.0 0.00 0.13 0.05 51 1014.9
20260905141033 68 68 3.0 7.0 0.00 0.13 0.05 51 1014.8
20260905140531 68 331 3.0 7.0 0.00 0.13 0.05 51 1014.9
20260905140030 68 221 2.0 8.0 0.00 0.13 0.05 50 1014.8
20260905135528 69 284 4.0 10.0 0.00 0.13 0.05 50 1014.9
20260905135026 69 185 3.0 7.0 0.00 0.13 0.05 50 1014.7
20260905134525 70 70 4.0 8.0 0.00 0.13 0.05 49 1014.6
20260905134024 70 232 4.0 9.0 0.00 0.13 0.05 49 1014.7
20260905133522 70 130 3.0 11.0 0.00 0.13 0.05 51 1014.6
20260905133022 69 110 3.0 10.0 0.00 0.13 0.05 53 1014.7
20260905132519 69 328 5.0 10.0 0.00 0.13 0.05 54 1014.7
20260905132019 69 292 3.0 9.0 0.00 0.13 0.05 55 1014.8
20260905131516 68 224 4.0 9.0 0.00 0.13 0.05 56 1014.7
20260905131035 68 81 4.0 8.0 0.00 0.13 0.05 58 1014.7
20260905130533 68 341 4.0 11.0 0.00 0.13 0.05 58 1014.5
20260905130032 66 25 3.0 11.0 0.00 0.13 0.05 60 1014.6
20260905125530 67 357 4.0 11.0 0.00 0.13 0.05 59 1014.7
20260905125029 67 32 3.0 8.0 0.00 0.13 0.05 58 1014.7
20260905124527 68 334 3.0 8.0 0.00 0.13 0.05 56 1014.7
20260905124026 69 275 3.0 8.0 0.00 0.13 0.05 55 1014.4
20260905123524 70 288 3.0 11.0 0.00 0.13 0.05 50 1014.4
20260905123023 70 266 5.0 11.0 0.00 0.13 0.05 49 1014.2
20260905122521 71 298 6.0 21.0 0.00 0.13 0.05 48 1014.2
20260905122021 70 229 4.0 10.0 0.00 0.13 0.05 50 1014.3
20260905121518 69 203 4.0 11.0 0.00 0.13 0.05 51 1014.2
20260905121017 70 231 4.0 13.0 0.00 0.13 0.05 52 1014.1
20260905120535 70 230 4.0 13.0 0.00 0.13 0.05 52 1014.2
20260905120034 71 195 4.0 11.0 0.00 0.13 0.05 52 1014.1
20260905115533 70 165 3.0 7.0 0.00 0.13 0.05 53 1014.2
20260905115031 69 213 6.0 15.0 0.00 0.13 0.05 55 1014.2
20260905114530 67 247 7.0 16.0 0.00 0.13 0.05 57 1014.4
20260905114028 68 264 6.0 13.0 0.00 0.13 0.05 57 1014.3
20260905113526 69 212 7.0 15.0 0.00 0.13 0.05 56 1014.3
20260905113025 69 189 4.0 13.0 0.00 0.13 0.05 56 1014.1
20260905112523 70 232 5.0 23.0 0.00 0.13 0.05 54 1014.2
20260905112025 70 213 4.0 18.0 0.00 0.13 0.05 54 1014.0
20260905111520 69 264 6.0 19.0 0.00 0.13 0.05 54 1014.2
20260905111019 69 218 5.0 11.0 0.00 0.13 0.05 56 1014.2
20260905110517 69 225 8.0 19.0 0.00 0.13 0.05 56 1014.1
20260905110015 69 215 7.0 15.0 0.00 0.13 0.05 57 1014.1
20260905105534 68 186 6.0 16.0 0.00 0.13 0.05 59 1014.1
20260905105033 67 225 6.0 19.0 0.00 0.13 0.05 60 1014.1
20260905104531 67 174 5.0 15.0 0.00 0.13 0.05 60 1014.0
20260905104030 68 210 6.0 17.0 0.00 0.13 0.05 59 1013.9
20260905103528 68 214 4.0 9.0 0.00 0.13 0.05 60 1014.0
20260905103027 67 187 3.0 11.0 0.00 0.13 0.05 62 1013.9
20260905102526 67 92 3.0 9.0 0.00 0.13 0.05 63 1013.9
20260905102024 67 239 4.0 15.0 0.00 0.13 0.05 62 1013.9
20260905101522 68 257 3.0 7.0 0.00 0.13 0.05 61 1013.8
20260905101020 69 307 5.0 13.0 0.00 0.13 0.05 60 1013.7
20260905100519 68 347 5.0 17.0 0.00 0.13 0.05 60 1013.7
20260905100017 68 210 5.0 16.0 0.00 0.13 0.05 61 1013.8
20260905095516 67 232 5.0 14.0 0.00 0.13 0.05 62 1013.9
20260905095035 66 192 4.0 12.0 0.00 0.13 0.05 64 1013.9
20260905094533 66 282 5.0 13.0 0.00 0.13 0.05 64 1013.9
20260905094032 66 229 6.0 17.0 0.00 0.13 0.05 66 1013.8
20260905093532 67 222 6.0 14.0 0.00 0.13 0.05 66 1013.7
20260905093028 67 303 4.0 8.0 0.00 0.13 0.05 66 1013.7
20260905092528 67 345 6.0 15.0 0.00 0.13 0.05 66 1013.7
20260905092026 67 169 3.0 9.0 0.00 0.13 0.05 66 1013.7
20260905091524 65 205 5.0 14.0 0.00 0.13 0.05 69 1013.7
20260905091022 66 201 5.0 13.0 0.00 0.13 0.05 68 1013.6
20260905090521 66 221 4.0 11.0 0.00 0.13 0.05 68 1013.5
20260905090021 65 179 4.0 10.0 0.00 0.13 0.05 70 1013.7
20260905085518 66 202 3.0 11.0 0.00 0.13 0.05 69 1013.6
20260905085017 65 339 3.0 9.0 0.00 0.13 0.05 70 1013.7
20260905084535 64 247 4.0 15.0 0.00 0.13 0.05 71 1013.7
20260905084034 65 183 5.0 11.0 0.00 0.13 0.05 70 1013.6
20260905083533 66 244 6.0 12.0 0.00 0.13 0.05 70 1013.7
20260905083031 65 205 5.0 12.0 0.00 0.13 0.05 71 1013.6
20260905082529 65 228 4.0 12.0 0.00 0.13 0.05 71 1013.7
20260905082028 64 179 4.0 7.0 0.00 0.13 0.05 73 1013.5
20260905081527 64 298 4.0 9.0 0.00 0.13 0.05 72 1013.6
20260905081025 64 219 6.0 17.0 0.00 0.13 0.05 72 1013.6
20260905080524 63 202 5.0 15.0 0.00 0.13 0.05 74 1013.6
20260905080022 64 234 5.0 10.0 0.00 0.13 0.05 75 1013.5
20260905075520 64 189 5.0 12.0 0.00 0.13 0.05 74 1013.5
20260905075020 65 212 4.0 11.0 0.00 0.13 0.05 74 1013.3
20260905074517 64 205 4.0 9.0 0.00 0.13 0.05 76 1013.4
20260905074016 63 194 4.0 11.0 0.00 0.13 0.05 78 1013.3
20260905073534 63 213 4.0 13.0 0.00 0.13 0.05 78 1013.2
20260905073034 63 206 6.0 13.0 0.00 0.13 0.05 78 1013.0
20260905072532 63 43 3.0 9.0 0.00 0.13 0.05 78 1013.1
20260905072030 63 200 5.0 12.0 0.00 0.13 0.05 79 1013.1
20260905071530 62 212 4.0 9.0 0.00 0.13 0.05 80 1012.9
20260905071027 62 207 5.0 11.0 0.00 0.13 0.05 81 1013.0
20260905070525 62 188 4.0 10.0 0.00 0.13 0.05 82 1012.9
20260905070024 62 213 4.0 13.0 0.00 0.13 0.05 82 1012.9
20260905065522 62 199 4.0 10.0 0.00 0.13 0.05 82 1012.8
20260905065021 62 208 3.0 9.0 0.00 0.13 0.05 82 1012.6
20260905064519 62 193 4.0 11.0 0.00 0.13 0.05 82 1012.7
20260905064018 62 185 3.0 8.0 0.00 0.13 0.05 83 1012.8
20260905063516 62 142 3.0 9.0 0.00 0.13 0.05 82 1012.5
20260905063035 62 144 2.0 7.0 0.00 0.13 0.05 83 1012.6
20260905062534 62 182 3.0 6.0 0.00 0.13 0.05 83 1012.4
20260905062032 62 184 3.0 9.0 0.00 0.13 0.05 83 1012.4
20260905061530 62 156 3.0 8.0 0.00 0.13 0.05 83 1012.2
20260905061029 62 312 4.0 13.0 0.00 0.13 0.05 84 1012.3
20260905060527 62 208 5.0 17.0 0.00 0.13 0.05 84 1012.3
20260905060027 62 203 4.0 12.0 0.00 0.13 0.05 84 1012.3
20260905055524 62 194 2.0 8.0 0.00 0.13 0.05 85 1012.0
20260905055023 62 177 3.0 13.0 0.00 0.13 0.05 85 1012.0
20260905054521 62 219 3.0 6.0 0.00 0.13 0.05 85 1012.1
20260905054020 62 209 2.0 6.0 0.00 0.13 0.05 84 1012.0
20260905053520 62 342 3.0 7.0 0.00 0.13 0.05 84 1012.0
20260905053017 62 138 3.0 8.0 0.00 0.13 0.05 84 1011.9
20260905052536 61 193 4.0 9.0 0.00 0.13 0.05 85 1011.9
20260905052034 61 192 4.0 8.0 0.00 0.13 0.05 86 1011.8
20260905051533 61 157 4.0 8.0 0.00 0.13 0.05 87 1011.6
20260905051031 61 203 5.0 15.0 0.00 0.13 0.05 88 1011.5
20260905050529 61 188 4.0 10.0 0.00 0.13 0.05 88 1011.4
20260905050029 61 194 5.0 10.0 0.00 0.13 0.05 88 1011.3
20260905045527 61 179 4.0 9.0 0.00 0.13 0.05 89 1011.1
20260905045025 61 190 3.0 10.0 0.00 0.13 0.05 89 1011.0
20260905044524 61 187 4.0 11.0 0.00 0.13 0.05 89 1011.0
20260905044022 61 183 4.0 14.0 0.00 0.13 0.05 89 1010.9
20260905043521 61 197 4.0 10.0 0.00 0.13 0.05 89 1010.7
20260905043019 61 206 5.0 10.0 0.00 0.13 0.05 90 1010.8
20260905042517 61 200 4.0 8.0 0.00 0.13 0.05 90 1010.8
20260905042016 61 198 4.0 9.0 0.00 0.13 0.05 90 1010.7
20260905041534 61 185 5.0 11.0 0.00 0.13 0.05 90 1010.6
20260905041033 61 189 5.0 12.0 0.00 0.13 0.05 90 1010.4
20260905040531 61 197 4.0 8.0 0.00 0.13 0.05 91 1010.3
20260905040030 61 184 4.0 9.0 0.00 0.13 0.05 91 1010.4
20260905035528 61 168 3.0 8.0 0.00 0.13 0.05 91 1010.2
20260905035027 61 162 3.0 6.0 0.00 0.13 0.05 92 1010.4
20260905034526 61 192 3.0 11.0 0.00 0.13 0.05 92 1010.2
20260905034024 61 173 2.0 6.0 0.00 0.13 0.05 92 1010.2
20260905033524 61 191 3.0 10.0 0.00 0.13 0.05 92 1010.2
20260905033021 61 202 4.0 9.0 0.00 0.13 0.05 93 1010.0
20260905032519 61 186 4.0 7.0 0.00 0.13 0.05 93 1009.9
20260905032018 61 167 3.0 8.0 0.00 0.13 0.05 93 1010.0
20260905031517 61 185 4.0 13.0 0.00 0.13 0.05 93 1010.0
20260905031036 61 198 4.0 8.0 0.00 0.13 0.05 93 1010.0
20260905030533 61 177 4.0 8.0 0.00 0.13 0.05 93 1010.0
20260905030032 61 189 4.0 9.0 0.00 0.13 0.05 94 1010.0
20260905025530 61 186 3.0 12.0 0.00 0.13 0.05 94 1009.9
20260905025029 61 192 3.0 8.0 0.00 0.13 0.05 94 1009.9
20260905024527 61 174 3.0 7.0 0.01 0.13 0.05 94 1009.9
20260905024026 61 195 4.0 10.0 0.01 0.13 0.05 94 1009.9
20260905023525 61 189 4.0 9.0 0.01 0.13 0.05 93 1010.0
20260905023023 61 202 3.0 11.0 0.01 0.13 0.05 93 1009.9
20260905022522 61 187 4.0 8.0 0.01 0.13 0.05 92 1009.6
20260905022020 61 139 3.0 12.0 0.01 0.13 0.05 92 1009.5
20260905021519 61 196 4.0 9.0 0.01 0.13 0.05 91 1009.4
20260905021017 61 198 5.0 17.0 0.01 0.13 0.05 91 1009.5
20260905020515 61 190 5.0 11.0 0.01 0.13 0.05 91 1009.5
20260905020034 61 175 4.0 12.0 0.01 0.13 0.05 91 1009.3
20260905015532 61 218 5.0 11.0 0.01 0.13 0.04 91 1009.5
20260905015031 61 208 6.0 14.0 0.01 0.13 0.04 90 1009.5
20260905014530 61 201 4.0 10.0 0.00 0.13 0.04 90 1009.6
20260905014029 61 203 6.0 17.0 0.00 0.13 0.04 90 1009.5
20260905013528 61 199 5.0 10.0 0.01 0.13 0.04 90 1009.1
20260905013025 61 193 5.0 12.0 0.01 0.13 0.04 90 1008.8
20260905012524 62 186 6.0 13.0 0.01 0.13 0.04 90 1009.0
20260905012022 62 189 6.0 14.0 0.02 0.13 0.04 91 1009.2
20260905011521 62 200 5.0 10.0 0.03 0.13 0.04 92 1009.2
20260905011019 62 194 5.0 9.0 0.03 0.13 0.04 93 1009.0
20260905010518 63 195 4.0 9.0 0.03 0.12 0.04 92 1009.0
20260905010017 63 175 3.0 7.0 0.03 0.12 0.04 92 1008.9
20260905005536 63 201 5.0 10.0 0.03 0.12 0.04 94 1008.8
20260905005034 63 187 3.0 10.0 0.03 0.12 0.04 95 1008.7
20260905004532 63 186 4.0 7.0 0.03 0.12 0.04 95 1008.7
20260905004031 63 195 3.0 5.0 0.03 0.12 0.04 95 1008.6
20260905003529 63 177 3.0 6.0 0.02 0.12 0.03 95 1008.6
20260905003028 63 179 3.0 5.0 0.02 0.12 0.03 95 1008.7
20260905002526 63 190 3.0 5.0 0.02 0.11 0.03 94 1008.7
20260905002025 64 186 2.0 5.0 0.01 0.10 0.02 94 1008.9
20260905001523 64 180 3.0 5.0 0.00 0.09 0.01 94 1008.6
20260905001022 64 182 2.0 4.0 0.00 0.09 0.01 93 1008.4
20260905000520 64 189 3.0 6.0 0.00 0.09 0.01 94 1008.4
20260905000018 64 180 4.0 6.0 0.00 0.09 0.01 94 1008.2
20260904235517 64 188 4.0 6.0 0.00 0.09 0.01 94 1008.1
20260904235016 64 169 3.0 6.0 0.00 0.09 0.01 94 1008.2
20260904234534 64 196 2.0 4.0 0.00 0.09 0.01 94 1008.1
20260904234032 64 199 2.0 5.0 0.00 0.09 0.01 94 1008.1
20260904233532 64 187 2.0 5.0 0.00 0.09 0.01 95 1008.0
20260904233029 64 170 1.0 5.0 0.00 0.09 0.01 95 1008.1
20260904232528 64 186 3.0 6.0 0.00 0.09 0.00 95 1008.0
20260904232027 64 188 3.0 8.0 0.00 0.09 0.00 96 1007.7
20260904231525 64 192 3.0 6.0 0.00 0.09 0.00 96 1007.8
20260904231023 64 190 3.0 6.0 0.00 0.09 0.00 97 1007.8
20260904230522 64 188 3.0 5.0 0.00 0.09 0.00 97 1007.6
20260904230021 65 200 3.0 6.0 0.00 0.09 0.00 97 1007.5
20260904225519 65 185 2.0 4.0 0.00 0.09 0.00 97 1007.7
20260904225017 65 170 2.0 3.0 0.00 0.09 0.00 97 1007.6
20260904224516 65 169 1.0 3.0 0.00 0.09 0.00 96 1007.6
20260904224035 65 175 2.0 3.0 0.00 0.09 0.00 96 1007.5
20260904223533 65 175 2.0 4.0 0.00 0.09 0.00 96 1007.5
20260904223032 65 188 2.0 6.0 0.00 0.09 0.00 96 1007.5
20260904222530 65 195 3.0 5.0 0.00 0.09 0.00 96 1007.6
20260904222029 65 193 3.0 6.0 0.02 0.09 0.00 96 1008.0
20260904221527 65 174 3.0 6.0 0.05 0.09 0.00 96 1007.8
20260904221026 65 134 2.0 4.0 0.05 0.09 0.00 96 1007.8
20260904220524 65 58 1.0 2.0 0.06 0.09 0.00 96 1007.6
20260904220023 65 35 1.0 3.0 0.06 0.09 0.00 95 1007.5
20260904215522 65 102 1.0 3.0 0.06 0.09 0.09 95 1007.6